Time,TemperatureF,DewpointF,PressureIn,WindDirection,WindDirectionDegrees,WindSpeedMPH,WindSpeedGustMPH,Humidity,HourlyPrecipIn,Conditions,Clouds,dailyrainin,SoftwareType,DateUTC
2013-03-14 00:00:00,23.5,18.5,30.38,NW,315,0.0,0.0,83,0.00,,,0.00,WUHU21636XXSP,2013-03-14 05:00:00,
2013-03-14 00:05:00,23.5,19.0,30.38,NW,315,0.0,0.0,83,0.00,,,0.00,WUHU21636XXSP,2013-03-14 05:05:00,
2013-03-14 00:10:00,23.4,18.9,30.37,NW,315,0.0,0.0,83,0.00,,,0.00,WUHU21636XXSP,2013-03-14 05:10:00,
2013-03-14 00:15:00,23.2,18.7,30.37,NW,315,0.0,0.0,83,0.00,,,0.00,WUHU21636XXSP,2013-03-14 05:15:00,
2013-03-14 00:20:00,23.2,19.0,30.37,NW,315,0.0,0.0,84,0.00,,,0.00,WUHU21636XXSP,2013-03-14 05:20:00,
2013-03-14 00:25:00,23.4,19.2,30.37,NW,315,0.0,0.0,84,0.00,,,0.00,WUHU21636XXSP,2013-03-14 05:25:00,
2013-03-14 00:30:00,23.2,18.7,30.37,NW,315,0.0,0.0,83,0.00,,,0.00,WUHU21636XXSP,2013-03-14 05:30:00,
2013-03-14 00:35:00,22.8,18.3,30.37,NW,315,0.0,0.0,83,0.00,,,0.00,WUHU21636XXSP,2013-03-14 05:35:00,
2013-03-14 00:40:00,23.2,19.0,30.37,NW,315,0.0,0.0,84,0.00,,,0.00,WUHU21636XXSP,2013-03-14 05:40:00,
2013-03-14 00:45:00,22.8,18.7,30.37,NW,315,0.0,0.0,84,0.00,,,0.00,WUHU21636XXSP,2013-03-14 05:45:00,
2013-03-14 00:50:00,22.8,18.7,30.36,NW,315,0.0,0.0,84,0.00,,,0.00,WUHU21636XXSP,2013-03-14 05:50:00,
2013-03-14 00:55:00,23.2,19.2,30.36,NW,315,0.0,0.0,85,0.00,,,0.00,WUHU21636XXSP,2013-03-14 05:55:00,
2013-03-14 01:00:00,23.2,19.2,30.37,NW,315,0.0,0.0,85,0.00,,,0.00,WUHU21636XXSP,2013-03-14 06:00:00,
2013-03-14 01:05:00,23.2,19.2,30.37,NW,315,0.0,0.0,84,0.00,,,0.00,WUHU21636XXSP,2013-03-14 06:05:00,
2013-03-14 01:10:00,23.5,19.4,30.37,NW,315,0.0,0.0,84,0.00,,,0.00,WUHU21636XXSP,2013-03-14 06:10:00,
2013-03-14 01:15:00,23.5,19.4,30.37,NW,315,0.0,0.0,84,0.00,,,0.00,WUHU21636XXSP,2013-03-14 06:15:00,
2013-03-14 01:20:00,23.2,19.0,30.37,NW,315,0.0,0.0,84,0.00,,,0.00,WUHU21636XXSP,2013-03-14 06:20:00,
2013-03-14 01:25:00,23.2,19.0,30.37,NW,315,0.0,0.0,84,0.00,,,0.00,WUHU21636XXSP,2013-03-14 06:25:00,
2013-03-14 01:30:00,23.2,19.0,30.37,NW,315,0.0,0.0,84,0.00,,,0.00,WUHU21636XXSP,2013-03-14 06:30:00,
2013-03-14 01:35:00,23.2,19.0,30.36,NW,315,0.0,0.0,84,0.00,,,0.00,WUHU21636XXSP,2013-03-14 06:35:00,
2013-03-14 01:40:00,22.8,18.9,30.37,NW,315,0.0,0.0,85,0.00,,,0.00,WUHU21636XXSP,2013-03-14 06:40:00,
2013-03-14 01:45:00,22.6,18.5,30.37,NW,315,0.0,0.0,84,0.00,,,0.00,WUHU21636XXSP,2013-03-14 06:45:00,
2013-03-14 01:50:00,22.3,18.1,30.37,NW,315,0.0,0.0,85,0.00,,,0.00,WUHU21636XXSP,2013-03-14 06:50:00,
2013-03-14 01:55:00,22.3,18.3,30.37,NW,315,0.0,0.0,85,0.00,,,0.00,WUHU21636XXSP,2013-03-14 06:55:00,
2013-03-14 02:00:00,22.3,18.3,30.36,NW,315,0.0,0.0,85,0.00,,,0.00,WUHU21636XXSP,2013-03-14 07:00:00,
2013-03-14 02:05:00,22.8,19.2,30.36,NW,315,0.0,0.0,86,0.00,,,0.00,WUHU21636XXSP,2013-03-14 07:05:00,
2013-03-14 02:10:00,23.2,19.6,30.36,NW,315,0.0,0.0,86,0.00,,,0.00,WUHU21636XXSP,2013-03-14 07:10:00,
2013-03-14 02:15:00,23.2,19.6,30.36,NW,315,0.0,0.0,86,0.00,,,0.00,WUHU21636XXSP,2013-03-14 07:15:00,
2013-03-14 02:20:00,22.8,19.2,30.36,NW,315,0.0,0.0,86,0.00,,,0.00,WUHU21636XXSP,2013-03-14 07:20:00,
2013-03-14 02:25:00,22.6,19.0,30.36,NW,315,0.0,0.0,86,0.00,,,0.00,WUHU21636XXSP,2013-03-14 07:25:00,
2013-03-14 02:30:00,22.8,19.2,30.37,NW,315,0.0,0.0,86,0.00,,,0.00,WUHU21636XXSP,2013-03-14 07:30:00,
2013-03-14 02:35:00,22.3,18.7,30.37,NW,315,0.0,0.0,86,0.00,,,0.00,WUHU21636XXSP,2013-03-14 07:35:00,
2013-03-14 02:40:00,22.1,18.5,30.37,NW,315,0.0,0.0,86,0.00,,,0.00,WUHU21636XXSP,2013-03-14 07:40:00,
2013-03-14 02:45:00,22.3,18.7,30.37,NW,315,0.0,0.0,86,0.00,,,0.00,WUHU21636XXSP,2013-03-14 07:45:00,
2013-03-14 02:50:00,22.6,19.2,30.36,NW,315,0.0,0.0,87,0.00,,,0.00,WUHU21636XXSP,2013-03-14 07:50:00,
2013-03-14 02:55:00,22.1,18.7,30.36,NW,315,0.0,0.0,87,0.00,,,0.00,WUHU21636XXSP,2013-03-14 07:55:00,
2013-03-14 03:00:00,22.5,19.0,30.36,NW,315,0.0,0.0,87,0.00,,,0.00,WUHU21636XXSP,2013-03-14 08:00:00,
2013-03-14 03:05:00,22.3,18.9,30.36,NW,315,0.0,0.0,87,0.00,,,0.00,WUHU21636XXSP,2013-03-14 08:05:00,
2013-03-14 03:10:00,22.1,18.7,30.36,NW,315,0.0,0.0,87,0.00,,,0.00,WUHU21636XXSP,2013-03-14 08:10:00,
2013-03-14 03:15:00,22.6,19.2,30.35,NW,315,0.0,0.0,87,0.00,,,0.00,WUHU21636XXSP,2013-03-14 08:15:00,
2013-03-14 03:20:00,22.6,19.2,30.35,NW,315,0.0,0.0,87,0.00,,,0.00,WUHU21636XXSP,2013-03-14 08:20:00,
2013-03-14 03:25:00,22.8,19.4,30.35,NW,315,0.0,0.0,87,0.00,,,0.00,WUHU21636XXSP,2013-03-14 08:25:00,
2013-03-14 03:30:00,22.8,19.4,30.35,NW,315,0.0,0.0,87,0.00,,,0.00,WUHU21636XXSP,2013-03-14 08:30:00,
2013-03-14 03:35:00,23.0,19.6,30.34,NW,315,0.0,0.0,87,0.00,,,0.00,WUHU21636XXSP,2013-03-14 08:35:00,
2013-03-14 03:40:00,23.2,19.8,30.34,NW,315,0.0,0.0,87,0.00,,,0.00,WUHU21636XXSP,2013-03-14 08:40:00,
2013-03-14 03:45:00,23.2,19.8,30.33,NW,315,0.0,0.0,87,0.00,,,0.00,WUHU21636XXSP,2013-03-14 08:45:00,
2013-03-14 03:50:00,23.2,19.8,30.33,NW,315,0.0,0.0,87,0.00,,,0.00,WUHU21636XXSP,2013-03-14 08:50:00,
2013-03-14 03:55:00,22.8,19.4,30.33,NW,315,0.0,0.0,87,0.00,,,0.00,WUHU21636XXSP,2013-03-14 08:55:00,
2013-03-14 04:00:00,22.8,19.4,30.33,NW,315,0.0,0.0,87,0.00,,,0.00,WUHU21636XXSP,2013-03-14 09:00:00,
2013-03-14 04:05:00,22.8,19.4,30.34,NW,315,0.0,0.0,88,0.00,,,0.00,WUHU21636XXSP,2013-03-14 09:05:00,
2013-03-14 04:10:00,22.6,19.6,30.34,NW,315,0.0,0.0,88,0.00,,,0.00,WUHU21636XXSP,2013-03-14 09:10:00,
2013-03-14 04:15:00,22.6,19.6,30.33,NW,315,0.0,0.0,88,0.00,,,0.00,WUHU21636XXSP,2013-03-14 09:15:00,
2013-03-14 04:20:00,22.6,19.6,30.34,NW,315,0.0,0.0,88,0.00,,,0.00,WUHU21636XXSP,2013-03-14 09:20:00,
2013-03-14 04:25:00,22.6,19.6,30.34,NW,315,0.0,0.0,88,0.00,,,0.00,WUHU21636XXSP,2013-03-14 09:25:00,
2013-03-14 04:30:00,22.6,19.6,30.33,NW,315,0.0,0.0,88,0.00,,,0.00,WUHU21636XXSP,2013-03-14 09:30:00,
2013-03-14 04:35:00,22.8,19.8,30.33,NW,315,0.0,0.0,88,0.00,,,0.00,WUHU21636XXSP,2013-03-14 09:35:00,
2013-03-14 04:40:00,22.8,19.8,30.33,NW,315,0.0,0.0,88,0.00,,,0.00,WUHU21636XXSP,2013-03-14 09:40:00,
2013-03-14 04:45:00,22.8,19.8,30.33,NW,315,0.0,0.0,88,0.00,,,0.00,WUHU21636XXSP,2013-03-14 09:45:00,
2013-03-14 04:50:00,23.0,19.9,30.32,NW,315,0.0,0.0,88,0.00,,,0.00,WUHU21636XXSP,2013-03-14 09:50:00,
2013-03-14 04:55:00,23.2,20.3,30.32,NW,315,0.0,0.0,89,0.00,,,0.00,WUHU21636XXSP,2013-03-14 09:55:00,
2013-03-14 05:00:00,23.2,20.3,30.32,NW,315,0.0,0.0,89,0.00,,,0.00,WUHU21636XXSP,2013-03-14 10:00:00,
2013-03-14 05:05:00,23.2,20.3,30.33,NW,315,0.0,0.0,89,0.00,,,0.00,WUHU21636XXSP,2013-03-14 10:05:00,
2013-03-14 05:10:00,23.2,20.3,30.32,NW,315,0.0,0.0,89,0.00,,,0.00,WUHU21636XXSP,2013-03-14 10:10:00,
2013-03-14 05:15:00,23.5,20.7,30.32,NW,315,0.0,0.0,89,0.00,,,0.00,WUHU21636XXSP,2013-03-14 10:15:00,
2013-03-14 05:20:00,23.5,20.7,30.32,NW,315,0.0,0.0,89,0.00,,,0.00,WUHU21636XXSP,2013-03-14 10:20:00,
2013-03-14 05:25:00,23.5,20.7,30.32,NW,315,0.0,0.0,89,0.00,,,0.00,WUHU21636XXSP,2013-03-14 10:25:00,
2013-03-14 05:30:00,23.7,20.8,30.32,NW,315,0.0,0.0,89,0.00,,,0.00,WUHU21636XXSP,2013-03-14 10:30:00,
2013-03-14 05:35:00,24.1,21.2,30.32,NW,315,0.0,0.0,89,0.00,,,0.00,WUHU21636XXSP,2013-03-14 10:35:00,
2013-03-14 05:40:00,24.4,21.6,30.32,NW,315,0.0,0.0,89,0.00,,,0.00,WUHU21636XXSP,2013-03-14 10:40:00,
2013-03-14 05:45:00,24.6,21.7,30.32,NW,315,0.0,0.0,89,0.00,,,0.00,WUHU21636XXSP,2013-03-14 10:45:00,
2013-03-14 05:50:00,25.2,22.3,30.32,NW,315,0.0,0.0,89,0.00,,,0.00,WUHU21636XXSP,2013-03-14 10:50:00,
2013-03-14 05:55:00,25.5,22.6,30.32,NW,315,0.0,0.0,89,0.00,,,0.00,WUHU21636XXSP,2013-03-14 10:55:00,
2013-03-14 06:00:00,25.9,23.0,30.31,NW,315,0.0,0.0,89,0.00,,,0.00,WUHU21636XXSP,2013-03-14 11:00:00,
2013-03-14 06:05:00,26.2,23.0,30.31,NW,315,0.0,0.0,88,0.00,,,0.00,WUHU21636XXSP,2013-03-14 11:05:00,
2013-03-14 06:09:00,26.4,23.2,30.32,NW,315,0.0,0.0,88,0.00,,,0.00,WUHU21636XXSP,2013-03-14 11:09:00,
2013-03-14 06:15:00,26.4,23.2,30.32,NW,315,0.0,0.0,88,0.00,,,0.00,WUHU21636XXSP,2013-03-14 11:15:00,
2013-03-14 06:20:00,26.4,23.2,30.32,NW,315,0.0,0.0,88,0.00,,,0.00,WUHU21636XXSP,2013-03-14 11:20:00,
2013-03-14 06:25:00,26.8,23.5,30.32,NW,315,0.0,0.0,88,0.00,,,0.00,WUHU21636XXSP,2013-03-14 11:25:00,
2013-03-14 06:29:00,26.8,23.5,30.33,NW,315,0.0,0.0,88,0.00,,,0.00,WUHU21636XXSP,2013-03-14 11:29:00,
2013-03-14 06:34:00,27.1,23.7,30.32,NW,315,0.0,0.0,87,0.00,,,0.00,WUHU21636XXSP,2013-03-14 11:34:00,
2013-03-14 06:39:00,27.3,23.9,30.33,NW,315,0.0,0.0,87,0.00,,,0.00,WUHU21636XXSP,2013-03-14 11:39:00,
2013-03-14 06:44:00,27.5,24.1,30.32,NW,315,0.0,0.0,87,0.00,,,0.00,WUHU21636XXSP,2013-03-14 11:44:00,
2013-03-14 06:49:00,27.5,24.1,30.32,NW,315,0.0,0.0,87,0.00,,,0.00,WUHU21636XXSP,2013-03-14 11:49:00,
2013-03-14 06:55:00,27.3,23.5,30.32,NW,315,0.0,0.0,86,0.00,,,0.00,WUHU21636XXSP,2013-03-14 11:55:00,
2013-03-14 07:00:00,27.0,23.2,30.32,NW,315,0.0,0.0,86,0.00,,,0.00,WUHU21636XXSP,2013-03-14 12:00:00,
2013-03-14 07:05:00,26.8,23.0,30.32,NW,315,0.0,0.0,87,0.00,,,0.00,WUHU21636XXSP,2013-03-14 12:05:00,
2013-03-14 07:10:00,27.3,23.9,30.32,NW,315,0.0,0.0,87,0.00,,,0.00,WUHU21636XXSP,2013-03-14 12:10:00,
2013-03-14 07:15:00,27.5,24.1,30.32,NW,315,0.0,0.0,87,0.00,,,0.00,WUHU21636XXSP,2013-03-14 12:15:00,
2013-03-14 07:20:00,27.9,24.4,30.31,NW,315,0.0,0.0,87,0.00,,,0.00,WUHU21636XXSP,2013-03-14 12:20:00,
2013-03-14 07:25:00,28.0,24.6,30.31,NW,315,0.0,0.0,87,0.00,,,0.00,WUHU21636XXSP,2013-03-14 12:25:00,
2013-03-14 07:29:00,28.2,24.8,30.32,NW,315,0.0,0.0,87,0.00,,,0.00,WUHU21636XXSP,2013-03-14 12:29:00,
2013-03-14 07:35:00,28.4,25.0,30.32,NW,315,0.0,0.0,87,0.00,,,0.00,WUHU21636XXSP,2013-03-14 12:35:00,
2013-03-14 07:40:00,28.8,25.3,30.32,NW,315,0.0,0.0,87,0.00,,,0.00,WUHU21636XXSP,2013-03-14 12:40:00,
2013-03-14 07:45:00,28.9,25.5,30.32,NW,315,0.0,0.0,87,0.00,,,0.00,WUHU21636XXSP,2013-03-14 12:45:00,
2013-03-14 07:50:00,29.1,25.3,30.33,NW,315,0.0,0.0,86,0.00,,,0.00,WUHU21636XXSP,2013-03-14 12:50:00,
2013-03-14 07:55:00,29.3,25.5,30.33,NW,315,0.0,0.0,86,0.00,,,0.00,WUHU21636XXSP,2013-03-14 12:55:00,
2013-03-14 07:59:00,29.5,25.7,30.32,NW,315,0.0,0.0,86,0.00,,,0.00,WUHU21636XXSP,2013-03-14 12:59:00,
2013-03-14 08:04:00,29.8,26.1,30.32,SW,225,0.0,0.0,86,0.00,,,0.00,WUHU21636XXSP,2013-03-14 13:04:00,
2013-03-14 08:09:00,30.0,26.1,30.32,SSW,202,0.0,0.0,85,0.00,,,0.00,WUHU21636XXSP,2013-03-14 13:09:00,
2013-03-14 08:14:00,30.6,25.9,30.32,SSW,202,0.0,0.0,83,0.00,,,0.00,WUHU21636XXSP,2013-03-14 13:14:00,
2013-03-14 08:19:00,30.9,26.1,30.33,SSW,202,0.0,0.0,82,0.00,,,0.00,WUHU21636XXSP,2013-03-14 13:19:00,
2013-03-14 08:24:00,31.6,25.9,30.33,South,180,0.0,2.2,79,0.00,,,0.00,WUHU21636XXSP,2013-03-14 13:24:00,
2013-03-14 08:29:00,31.8,25.7,30.32,South,180,0.0,2.2,78,0.00,,,0.00,WUHU21636XXSP,2013-03-14 13:29:00,
2013-03-14 08:34:00,32.2,26.1,30.32,South,180,0.0,0.0,78,0.00,,,0.00,WUHU21636XXSP,2013-03-14 13:34:00,
2013-03-14 08:39:00,32.7,26.2,30.33,South,180,0.0,0.0,77,0.00,,,0.00,WUHU21636XXSP,2013-03-14 13:39:00,
2013-03-14 08:44:00,32.9,25.3,30.32,South,180,0.0,0.0,74,0.00,,,0.00,WUHU21636XXSP,2013-03-14 13:44:00,
2013-03-14 08:49:00,33.4,26.2,30.32,SSE,157,0.0,0.0,75,0.00,,,0.00,WUHU21636XXSP,2013-03-14 13:49:00,
2013-03-14 08:54:00,33.6,26.1,30.32,SSE,157,3.1,3.3,73,0.00,,,0.00,WUHU21636XXSP,2013-03-14 13:54:00,
2013-03-14 08:59:00,34.0,26.1,30.32,South,180,0.0,10.9,73,0.00,,,0.00,WUHU21636XXSP,2013-03-14 13:59:00,
2013-03-14 09:04:00,34.5,26.2,30.33,SSE,157,0.0,10.9,72,0.00,,,0.00,WUHU21636XXSP,2013-03-14 14:04:00,
2013-03-14 09:09:00,35.2,26.6,30.33,SW,225,2.4,2.4,71,0.00,,,0.00,WUHU21636XXSP,2013-03-14 14:09:00,
2013-03-14 09:14:00,35.6,26.4,30.33,SSW,202,2.6,2.6,69,0.00,,,0.00,WUHU21636XXSP,2013-03-14 14:14:00,
2013-03-14 09:19:00,35.6,26.4,30.33,SSE,157,0.0,2.6,68,0.00,,,0.00,WUHU21636XXSP,2013-03-14 14:19:00,
2013-03-14 09:24:00,35.4,25.9,30.33,ESE,112,6.2,6.7,68,0.00,,,0.00,WUHU21636XXSP,2013-03-14 14:24:00,
2013-03-14 09:29:00,35.6,25.7,30.33,South,180,3.3,6.7,67,0.00,,,0.00,WUHU21636XXSP,2013-03-14 14:29:00,
2013-03-14 09:34:00,36.1,26.1,30.33,SSE,157,0.4,8.2,67,0.00,,,0.00,WUHU21636XXSP,2013-03-14 14:34:00,
2013-03-14 09:39:00,38.8,27.5,30.33,SSE,157,3.1,8.2,64,0.00,,,0.00,WUHU21636XXSP,2013-03-14 14:39:00,
2013-03-14 09:44:00,37.8,26.2,30.33,SSE,157,2.2,3.8,63,0.00,,,0.00,WUHU21636XXSP,2013-03-14 14:44:00,
2013-03-14 09:49:00,37.0,26.2,30.32,SE,135,1.3,8.2,65,0.00,,,0.00,WUHU21636XXSP,2013-03-14 14:49:00,
2013-03-14 09:54:00,36.0,25.9,30.32,SSE,157,0.0,8.2,67,0.00,,,0.00,WUHU21636XXSP,2013-03-14 14:54:00,
2013-03-14 09:59:00,36.1,25.3,30.32,South,180,1.3,6.4,65,0.00,,,0.00,WUHU21636XXSP,2013-03-14 14:59:00,
2013-03-14 10:04:00,37.0,25.9,30.32,SSW,202,0.0,6.4,64,0.00,,,0.00,WUHU21636XXSP,2013-03-14 15:04:00,
2013-03-14 10:09:00,37.9,26.4,30.32,South,180,3.1,4.4,63,0.00,,,0.00,WUHU21636XXSP,2013-03-14 15:09:00,
2013-03-14 10:14:00,38.3,26.2,30.31,South,180,1.1,8.0,62,0.00,,,0.00,WUHU21636XXSP,2013-03-14 15:14:00,
2013-03-14 10:19:00,39.0,26.6,30.30,South,180,6.2,8.0,61,0.00,,,0.00,WUHU21636XXSP,2013-03-14 15:19:00,
2013-03-14 10:24:00,39.0,25.7,30.31,South,180,5.5,7.8,59,0.00,,,0.00,WUHU21636XXSP,2013-03-14 15:24:00,
2013-03-14 10:29:00,39.9,26.6,30.31,WSW,247,1.5,7.8,59,0.00,,,0.00,WUHU21636XXSP,2013-03-14 15:29:00,
2013-03-14 10:34:00,39.7,26.4,30.31,SSW,202,0.0,5.5,59,0.00,,,0.00,WUHU21636XXSP,2013-03-14 15:34:00,
2013-03-14 10:39:00,39.7,26.4,30.30,South,180,1.3,5.1,59,0.00,,,0.00,WUHU21636XXSP,2013-03-14 15:39:00,
2013-03-14 10:44:00,39.6,25.9,30.30,WSW,247,0.8,8.2,58,0.00,,,0.00,WUHU21636XXSP,2013-03-14 15:44:00,
2013-03-14 10:49:00,39.9,25.7,30.30,South,180,1.5,8.2,57,0.00,,,0.00,WUHU21636XXSP,2013-03-14 15:49:00,
2013-03-14 10:54:00,41.5,26.4,30.29,SSW,202,0.0,7.1,55,0.00,,,0.00,WUHU21636XXSP,2013-03-14 15:54:00,
2013-03-14 10:59:00,42.4,26.8,30.29,SW,225,3.1,3.1,54,0.00,,,0.00,WUHU21636XXSP,2013-03-14 15:59:00,
2013-03-14 11:04:00,42.6,25.7,30.28,SSE,157,8.5,17.4,51,0.00,,,0.00,WUHU21636XXSP,2013-03-14 16:04:00,
2013-03-14 11:09:00,42.4,25.9,30.28,SSW,202,2.4,17.4,53,0.00,,,0.00,WUHU21636XXSP,2013-03-14 16:09:00,
2013-03-14 11:14:00,42.1,26.4,30.28,SSW,202,0.0,11.8,54,0.00,,,0.00,WUHU21636XXSP,2013-03-14 16:14:00,
2013-03-14 11:19:00,41.7,25.2,30.27,SSE,157,2.6,7.1,52,0.00,,,0.00,WUHU21636XXSP,2013-03-14 16:19:00,
2013-03-14 11:24:00,40.3,24.8,30.27,SE,135,7.1,16.3,54,0.00,,,0.00,WUHU21636XXSP,2013-03-14 16:24:00,
2013-03-14 11:29:00,40.1,25.5,30.26,South,180,0.4,16.3,57,0.00,,,0.00,WUHU21636XXSP,2013-03-14 16:29:00,
2013-03-14 11:34:00,40.8,26.6,30.26,SSW,202,0.8,15.2,57,0.00,,,0.00,WUHU21636XXSP,2013-03-14 16:34:00,
2013-03-14 11:39:00,41.5,25.9,30.25,SE,135,1.7,20.1,54,0.00,,,0.00,WUHU21636XXSP,2013-03-14 16:39:00,
2013-03-14 11:44:00,41.7,26.6,30.25,SSE,157,1.5,20.1,55,0.00,,,0.00,WUHU21636XXSP,2013-03-14 16:44:00,
2013-03-14 11:49:00,43.7,27.5,30.25,South,180,0.0,2.2,53,0.00,,,0.00,WUHU21636XXSP,2013-03-14 16:49:00,
2013-03-14 11:54:00,44.8,28.0,30.25,ESE,112,0.0,2.2,52,0.00,,,0.00,WUHU21636XXSP,2013-03-14 16:54:00,
2013-03-14 11:59:00,44.4,27.9,30.25,SSE,157,0.0,4.6,52,0.00,,,0.00,WUHU21636XXSP,2013-03-14 16:59:00,
2013-03-14 12:04:00,45.3,28.2,30.25,SE,135,4.2,12.0,51,0.00,,,0.00,WUHU21636XXSP,2013-03-14 17:04:00,
2013-03-14 12:09:00,45.1,27.5,30.24,SSE,157,6.7,15.2,50,0.00,,,0.00,WUHU21636XXSP,2013-03-14 17:09:00,
2013-03-14 12:14:00,45.1,27.0,30.23,SSE,157,5.3,18.7,49,0.00,,,0.00,WUHU21636XXSP,2013-03-14 17:14:00,
2013-03-14 12:19:00,45.3,26.6,30.23,South,180,4.2,18.7,48,0.00,,,0.00,WUHU21636XXSP,2013-03-14 17:19:00,
2013-03-14 12:24:00,45.9,26.6,30.23,SSW,202,19.0,23.4,47,0.00,,,0.00,WUHU21636XXSP,2013-03-14 17:24:00,
2013-03-14 12:29:00,45.3,26.1,30.23,South,180,11.1,23.4,47,0.00,,,0.00,WUHU21636XXSP,2013-03-14 17:29:00,
2013-03-14 12:34:00,44.4,26.4,30.23,SSE,157,3.5,25.2,49,0.00,,,0.00,WUHU21636XXSP,2013-03-14 17:34:00,
2013-03-14 12:39:00,43.9,26.4,30.23,SSE,157,3.5,25.2,50,0.00,,,0.00,WUHU21636XXSP,2013-03-14 17:39:00,
2013-03-14 12:44:00,43.2,26.2,30.23,East,90,4.2,17.0,51,0.00,,,0.00,WUHU21636XXSP,2013-03-14 17:44:00,
2013-03-14 12:49:00,42.1,26.1,30.22,SSE,157,2.9,4.2,53,0.00,,,0.00,WUHU21636XXSP,2013-03-14 17:49:00,
2013-03-14 12:54:00,41.9,26.2,30.22,South,180,0.0,4.2,54,0.00,,,0.00,WUHU21636XXSP,2013-03-14 17:54:00,
2013-03-14 12:59:00,42.3,26.6,30.22,ESE,112,0.0,2.9,54,0.00,,,0.00,WUHU21636XXSP,2013-03-14 17:59:00,
2013-03-14 13:04:00,44.8,28.0,30.20,ESE,112,6.7,7.3,52,0.00,,,0.00,WUHU21636XXSP,2013-03-14 18:04:00,
2013-03-14 13:09:00,47.1,29.3,30.20,SE,135,7.1,14.3,50,0.00,,,0.00,WUHU21636XXSP,2013-03-14 18:09:00,
2013-03-14 13:14:00,46.6,27.7,30.20,SE,135,6.0,16.3,48,0.00,,,0.00,WUHU21636XXSP,2013-03-14 18:14:00,
2013-03-14 13:19:00,46.2,28.6,30.20,South,180,5.1,16.3,50,0.00,,,0.00,WUHU21636XXSP,2013-03-14 18:19:00,
2013-03-14 13:24:00,45.5,27.9,30.21,SSE,157,8.2,12.5,50,0.00,,,0.00,WUHU21636XXSP,2013-03-14 18:24:00,
2013-03-14 13:29:00,44.2,27.1,30.21,SSE,157,0.0,11.6,51,0.00,,,0.00,WUHU21636XXSP,2013-03-14 18:29:00,
2013-03-14 13:34:00,43.9,27.7,30.21,SSE,157,2.9,11.6,53,0.00,,,0.00,WUHU21636XXSP,2013-03-14 18:34:00,
2013-03-14 13:39:00,43.7,27.5,30.21,SSE,157,0.0,2.9,53,0.00,,,0.00,WUHU21636XXSP,2013-03-14 18:39:00,
2013-03-14 13:44:00,43.3,27.7,30.20,SE,135,0.0,4.4,54,0.00,,,0.00,WUHU21636XXSP,2013-03-14 18:44:00,
2013-03-14 13:49:00,43.5,27.9,30.18,SE,135,0.2,13.4,54,0.00,,,0.00,WUHU21636XXSP,2013-03-14 18:49:00,
2013-03-14 13:54:00,43.2,27.9,30.16,SE,135,0.0,13.4,55,0.00,,,0.00,WUHU21636XXSP,2013-03-14 18:54:00,
2013-03-14 13:59:00,43.3,28.0,30.17,SSE,157,4.0,4.9,55,0.00,,,0.00,WUHU21636XXSP,2013-03-14 18:59:00,
2013-03-14 14:04:00,43.2,27.9,30.16,SE,135,3.1,16.3,55,0.00,,,0.00,WUHU21636XXSP,2013-03-14 19:04:00,
2013-03-14 14:09:00,43.5,28.8,30.16,SSE,157,0.0,16.3,56,0.00,,,0.00,WUHU21636XXSP,2013-03-14 19:09:00,
2013-03-14 14:14:00,46.0,30.2,30.16,South,180,4.4,10.9,54,0.00,,,0.00,WUHU21636XXSP,2013-03-14 19:14:00,
2013-03-14 14:19:00,47.3,29.5,30.16,SE,135,4.2,19.4,50,0.00,,,0.00,WUHU21636XXSP,2013-03-14 19:19:00,
2013-03-14 14:24:00,46.6,29.3,30.16,South,180,2.2,19.4,51,0.00,,,0.00,WUHU21636XXSP,2013-03-14 19:24:00,
2013-03-14 14:29:00,47.1,29.8,30.16,SSE,157,4.9,11.8,51,0.00,,,0.00,WUHU21636XXSP,2013-03-14 19:29:00,
2013-03-14 14:34:00,47.8,29.5,30.16,SSE,157,3.3,14.0,49,0.00,,,0.00,WUHU21636XXSP,2013-03-14 19:34:00,
2013-03-14 14:39:00,48.0,29.7,30.15,SE,135,4.2,14.0,49,0.00,,,0.00,WUHU21636XXSP,2013-03-14 19:39:00,
2013-03-14 14:44:00,47.8,30.4,30.15,SE,135,4.2,14.3,51,0.00,,,0.00,WUHU21636XXSP,2013-03-14 19:44:00,
2013-03-14 14:49:00,48.7,30.9,30.15,WSW,247,1.7,17.8,50,0.00,,,0.00,WUHU21636XXSP,2013-03-14 19:49:00,
2013-03-14 14:54:00,48.9,30.4,30.14,SSE,157,12.0,20.1,49,0.00,,,0.00,WUHU21636XXSP,2013-03-14 19:54:00,
2013-03-14 14:59:00,48.7,31.3,30.14,South,180,2.6,20.1,51,0.00,,,0.00,WUHU21636XXSP,2013-03-14 19:59:00,
2013-03-14 15:04:00,48.9,31.5,30.14,SE,135,4.0,17.2,51,0.00,,,0.00,WUHU21636XXSP,2013-03-14 20:04:00,
2013-03-14 15:09:00,49.5,32.0,30.13,SSE,157,7.1,17.2,51,0.00,,,0.00,WUHU21636XXSP,2013-03-14 20:09:00,
2013-03-14 15:14:00,48.4,31.5,30.13,SSE,157,0.6,17.0,52,0.00,,,0.00,WUHU21636XXSP,2013-03-14 20:14:00,
2013-03-14 15:19:00,46.9,30.9,30.13,SSE,157,6.4,18.7,54,0.00,,,0.00,WUHU21636XXSP,2013-03-14 20:19:00,
2013-03-14 15:24:00,46.9,31.8,30.13,SSW,202,2.6,22.1,56,0.00,,,0.00,WUHU21636XXSP,2013-03-14 20:24:00,
2013-03-14 15:29:00,48.4,33.3,30.12,ESE,112,2.4,22.1,56,0.00,,,0.00,WUHU21636XXSP,2013-03-14 20:29:00,
2013-03-14 15:34:00,48.2,32.7,30.12,SSE,157,5.8,16.1,55,0.00,,,0.00,WUHU21636XXSP,2013-03-14 20:34:00,
2013-03-14 15:39:00,47.1,32.5,30.12,South,180,7.1,22.1,57,0.00,,,0.00,WUHU21636XXSP,2013-03-14 20:39:00,
2013-03-14 15:44:00,47.3,32.7,30.12,SE,135,3.3,22.1,57,0.00,,,0.00,WUHU21636XXSP,2013-03-14 20:44:00,
2013-03-14 15:49:00,46.9,32.7,30.12,SE,135,0.8,14.3,58,0.00,,,0.00,WUHU21636XXSP,2013-03-14 20:49:00,
2013-03-14 15:54:00,47.3,34.2,30.12,SSE,157,2.2,13.4,60,0.00,,,0.00,WUHU21636XXSP,2013-03-14 20:54:00,
2013-03-14 15:59:00,47.5,33.3,30.12,SSE,157,0.0,4.0,59,0.00,,,0.00,WUHU21636XXSP,2013-03-14 20:59:00,
2013-03-14 16:04:00,47.5,33.3,30.12,SSE,157,1.7,4.0,59,0.00,,,0.00,WUHU21636XXSP,2013-03-14 21:04:00,
2013-03-14 16:09:00,47.8,33.6,30.12,SW,225,9.8,15.8,58,0.00,,,0.00,WUHU21636XXSP,2013-03-14 21:09:00,
2013-03-14 16:14:00,47.8,34.2,30.13,South,180,4.6,20.3,59,0.00,,,0.00,WUHU21636XXSP,2013-03-14 21:14:00,
2013-03-14 16:20:00,48.0,34.3,30.13,South,180,0.2,20.3,59,0.00,,,0.00,WUHU21636XXSP,2013-03-14 21:20:00,
2013-03-14 16:25:00,48.0,34.3,30.14,SE,135,2.9,12.0,59,0.00,,,0.00,WUHU21636XXSP,2013-03-14 21:25:00,
2013-03-14 16:30:00,47.5,33.8,30.13,WSW,247,3.5,12.0,59,0.00,,,0.00,WUHU21636XXSP,2013-03-14 21:30:00,
2013-03-14 16:35:00,47.5,34.3,30.14,SSE,157,3.5,14.9,60,0.00,,,0.00,WUHU21636XXSP,2013-03-14 21:35:00,
2013-03-14 16:40:00,47.1,34.3,30.14,SW,225,6.0,15.6,61,0.00,,,0.00,WUHU21636XXSP,2013-03-14 21:40:00,
2013-03-14 16:45:00,47.1,34.3,30.14,SSE,157,0.0,15.6,61,0.00,,,0.00,WUHU21636XXSP,2013-03-14 21:45:00,
2013-03-14 16:50:00,46.9,34.2,30.14,SW,225,4.4,18.3,61,0.00,,,0.00,WUHU21636XXSP,2013-03-14 21:50:00,
2013-03-14 16:55:00,46.9,34.5,30.14,SSW,202,2.6,18.3,62,0.00,,,0.00,WUHU21636XXSP,2013-03-14 21:55:00,
2013-03-14 17:00:00,47.1,34.7,30.14,ENE,67,0.0,17.6,62,0.00,,,0.00,WUHU21636XXSP,2013-03-14 22:00:00,
2013-03-14 17:05:00,47.1,34.3,30.14,South,180,5.5,5.5,61,0.00,,,0.00,WUHU21636XXSP,2013-03-14 22:05:00,
2013-03-14 17:10:00,47.1,34.7,30.14,SSW,202,5.5,12.9,62,0.00,,,0.00,WUHU21636XXSP,2013-03-14 22:10:00,
2013-03-14 17:15:00,47.1,34.7,30.14,SE,135,1.5,15.6,62,0.00,,,0.00,WUHU21636XXSP,2013-03-14 22:15:00,
2013-03-14 17:20:00,47.3,34.9,30.13,SSE,157,1.7,15.6,62,0.00,,,0.00,WUHU21636XXSP,2013-03-14 22:20:00,
2013-03-14 17:25:00,47.1,34.7,30.14,SSE,157,2.9,9.1,62,0.00,,,0.00,WUHU21636XXSP,2013-03-14 22:25:00,
2013-03-14 17:30:00,47.1,34.7,30.14,SSW,202,2.9,9.1,62,0.00,,,0.00,WUHU21636XXSP,2013-03-14 22:30:00,
2013-03-14 17:35:00,47.1,34.7,30.13,SSW,202,3.1,3.1,62,0.00,,,0.00,WUHU21636XXSP,2013-03-14 22:35:00,
2013-03-14 17:40:00,47.3,34.9,30.13,SSW,202,2.2,3.1,62,0.00,,,0.00,WUHU21636XXSP,2013-03-14 22:40:00,
2013-03-14 17:45:00,47.3,34.9,30.13,South,180,2.2,3.1,61,0.00,,,0.00,WUHU21636XXSP,2013-03-14 22:45:00,
2013-03-14 17:50:00,47.1,34.3,30.13,SSE,157,2.2,12.0,61,0.00,,,0.00,WUHU21636XXSP,2013-03-14 22:50:00,
2013-03-14 17:55:00,46.9,34.2,30.14,South,180,1.7,12.3,61,0.00,,,0.00,WUHU21636XXSP,2013-03-14 22:55:00,
2013-03-14 18:00:00,46.8,34.0,30.13,South,180,0.0,12.3,62,0.00,,,0.00,WUHU21636XXSP,2013-03-14 23:00:00,
2013-03-14 18:05:00,46.8,34.0,30.14,South,180,3.1,8.5,62,0.00,,,0.00,WUHU21636XXSP,2013-03-14 23:05:00,
2013-03-14 18:10:00,46.4,34.0,30.14,SSE,157,2.6,3.1,62,0.00,,,0.00,WUHU21636XXSP,2013-03-14 23:10:00,
2013-03-14 18:14:00,46.0,34.0,30.14,South,180,4.4,6.2,63,0.00,,,0.00,WUHU21636XXSP,2013-03-14 23:14:00,
2013-03-14 18:19:00,46.0,34.0,30.14,South,180,0.0,13.8,63,0.00,,,0.00,WUHU21636XXSP,2013-03-14 23:19:00,
2013-03-14 18:24:00,45.7,34.2,30.13,South,180,0.8,13.8,64,0.00,,,0.00,WUHU21636XXSP,2013-03-14 23:24:00,
2013-03-14 18:29:00,45.3,34.5,30.13,SE,135,0.0,1.3,66,0.00,,,0.00,WUHU21636XXSP,2013-03-14 23:29:00,
2013-03-14 18:34:00,44.8,34.3,30.12,SSE,157,0.0,1.3,67,0.00,,,0.00,WUHU21636XXSP,2013-03-14 23:34:00,
2013-03-14 18:39:00,44.4,34.0,30.13,SSE,157,0.0,1.1,67,0.00,,,0.00,WUHU21636XXSP,2013-03-14 23:39:00,
2013-03-14 18:44:00,44.2,34.2,30.12,SSE,157,0.0,2.9,69,0.00,,,0.00,WUHU21636XXSP,2013-03-14 23:44:00,
2013-03-14 18:49:00,43.9,34.3,30.13,SE,135,0.0,2.9,70,0.00,,,0.00,WUHU21636XXSP,2013-03-14 23:49:00,
2013-03-14 18:54:00,43.7,34.5,30.12,SE,135,2.9,6.9,70,0.00,,,0.00,WUHU21636XXSP,2013-03-14 23:54:00,
2013-03-14 18:59:00,43.5,34.3,30.12,SE,135,1.3,6.9,70,0.00,,,0.00,WUHU21636XXSP,2013-03-14 23:59:00,
2013-03-14 19:04:00,43.3,33.8,30.12,SSE,157,0.6,2.9,69,0.00,,,0.00,WUHU21636XXSP,2013-03-15 00:04:00,
2013-03-14 19:09:00,43.0,33.4,30.12,SSE,157,0.0,1.3,69,0.00,,,0.00,WUHU21636XXSP,2013-03-15 00:09:00,
2013-03-14 19:14:00,42.6,33.6,30.12,SSE,157,0.0,0.6,70,0.00,,,0.00,WUHU21636XXSP,2013-03-15 00:14:00,
2013-03-14 19:19:00,42.4,33.4,30.12,ESE,112,0.0,3.1,70,0.00,,,0.00,WUHU21636XXSP,2013-03-15 00:19:00,
2013-03-14 19:24:00,42.1,33.3,30.13,SE,135,0.0,3.1,71,0.00,,,0.00,WUHU21636XXSP,2013-03-15 00:24:00,
2013-03-14 19:29:00,41.9,33.1,30.12,SE,135,0.0,0.0,71,0.00,,,0.00,WUHU21636XXSP,2013-03-15 00:29:00,
2013-03-14 19:34:00,41.5,33.4,30.13,SE,135,0.0,1.3,73,0.00,,,0.00,WUHU21636XXSP,2013-03-15 00:34:00,
2013-03-14 19:39:00,41.4,33.3,30.13,SE,135,0.0,1.3,74,0.00,,,0.00,WUHU21636XXSP,2013-03-15 00:39:00,
2013-03-14 19:44:00,41.2,33.4,30.12,SSE,157,0.0,0.0,74,0.00,,,0.00,WUHU21636XXSP,2013-03-15 00:44:00,
2013-03-14 19:49:00,40.6,33.3,30.12,SE,135,0.0,0.0,75,0.00,,,0.00,WUHU21636XXSP,2013-03-15 00:49:00,
2013-03-14 19:54:00,40.6,33.3,30.12,SE,135,0.0,0.4,75,0.00,,,0.00,WUHU21636XXSP,2013-03-15 00:54:00,
2013-03-14 19:59:00,40.6,33.3,30.12,SSE,157,0.0,0.4,75,0.00,,,0.00,WUHU21636XXSP,2013-03-15 00:59:00,
2013-03-14 20:04:00,40.3,32.9,30.12,SSW,202,0.0,0.0,75,0.00,,,0.00,WUHU21636XXSP,2013-03-15 01:04:00,
2013-03-14 20:09:00,40.1,32.7,30.13,SSW,202,0.0,0.0,75,0.00,,,0.00,WUHU21636XXSP,2013-03-15 01:09:00,
2013-03-14 20:14:00,40.1,32.7,30.13,SE,135,0.8,0.8,75,0.00,,,0.00,WUHU21636XXSP,2013-03-15 01:14:00,
2013-03-14 20:19:00,39.9,32.5,30.13,South,180,0.0,0.8,75,0.00,,,0.00,WUHU21636XXSP,2013-03-15 01:19:00,
2013-03-14 20:24:00,39.7,32.4,30.13,South,180,0.0,0.8,75,0.00,,,0.00,WUHU21636XXSP,2013-03-15 01:24:00,
2013-03-14 20:29:00,39.7,32.4,30.13,SSE,157,0.0,2.6,75,0.00,,,0.00,WUHU21636XXSP,2013-03-15 01:29:00,
2013-03-14 20:34:00,39.4,32.4,30.13,SSE,157,0.0,2.6,76,0.00,,,0.00,WUHU21636XXSP,2013-03-15 01:34:00,
2013-03-14 20:39:00,39.2,32.2,30.13,SSE,157,0.0,0.6,76,0.00,,,0.00,WUHU21636XXSP,2013-03-15 01:39:00,
2013-03-14 20:44:00,39.2,32.2,30.13,SE,135,0.0,0.0,76,0.00,,,0.00,WUHU21636XXSP,2013-03-15 01:44:00,
2013-03-14 20:49:00,39.4,32.0,30.13,South,180,0.0,1.5,75,0.00,,,0.00,WUHU21636XXSP,2013-03-15 01:49:00,
2013-03-14 20:54:00,39.0,31.6,30.13,SSE,157,0.0,1.5,75,0.00,,,0.00,WUHU21636XXSP,2013-03-15 01:54:00,
2013-03-14 20:59:00,39.0,31.6,30.12,SSE,157,1.3,6.7,75,0.00,,,0.00,WUHU21636XXSP,2013-03-15 01:59:00,
2013-03-14 21:04:00,38.8,31.5,30.13,South,180,0.0,6.7,75,0.00,,,0.00,WUHU21636XXSP,2013-03-15 02:04:00,
2013-03-14 21:09:00,38.8,31.5,30.13,South,180,0.0,3.5,75,0.00,,,0.00,WUHU21636XXSP,2013-03-15 02:09:00,
2013-03-14 21:14:00,38.8,31.5,30.13,SSE,157,0.0,3.5,74,0.00,,,0.00,WUHU21636XXSP,2013-03-15 02:14:00,
2013-03-14 21:19:00,38.7,30.9,30.13,South,180,3.1,5.3,74,0.00,,,0.00,WUHU21636XXSP,2013-03-15 02:19:00,
2013-03-14 21:24:00,38.7,30.9,30.13,South,180,0.0,5.3,74,0.00,,,0.00,WUHU21636XXSP,2013-03-15 02:24:00,
2013-03-14 21:29:00,38.3,30.9,30.14,SSW,202,0.2,3.1,75,0.00,,,0.00,WUHU21636XXSP,2013-03-15 02:29:00,
2013-03-14 21:34:00,38.1,30.7,30.13,South,180,1.1,2.0,75,0.00,,,0.00,WUHU21636XXSP,2013-03-15 02:34:00,
2013-03-14 21:39:00,38.1,30.7,30.13,SSE,157,0.0,1.1,75,0.00,,,0.00,WUHU21636XXSP,2013-03-15 02:39:00,
2013-03-14 21:44:00,38.3,30.9,30.13,South,180,0.0,2.4,75,0.00,,,0.00,WUHU21636XXSP,2013-03-15 02:44:00,
2013-03-14 21:49:00,38.3,30.9,30.12,SSW,202,0.0,2.4,74,0.00,,,0.00,WUHU21636XXSP,2013-03-15 02:49:00,
2013-03-14 21:54:00,38.3,30.9,30.12,SSW,202,3.8,3.8,74,0.00,,,0.00,WUHU21636XXSP,2013-03-15 02:54:00,
2013-03-14 21:59:00,38.1,30.4,30.12,SSE,157,0.0,3.8,74,0.00,,,0.00,WUHU21636XXSP,2013-03-15 02:59:00,
2013-03-14 22:04:00,38.1,30.4,30.12,SSE,157,0.0,3.8,74,0.00,,,0.00,WUHU21636XXSP,2013-03-15 03:04:00,
2013-03-14 22:09:00,37.9,30.4,30.13,SE,135,0.0,0.0,75,0.00,,,0.00,WUHU21636XXSP,2013-03-15 03:09:00,
2013-03-14 22:14:00,37.9,30.4,30.14,SSE,157,2.6,2.6,75,0.00,,,0.00,WUHU21636XXSP,2013-03-15 03:14:00,
2013-03-14 22:19:00,37.6,30.2,30.13,ESE,112,0.0,2.6,75,0.00,,,0.00,WUHU21636XXSP,2013-03-15 03:19:00,
2013-03-14 22:24:00,37.8,30.4,30.13,SE,135,0.0,2.6,75,0.00,,,0.00,WUHU21636XXSP,2013-03-15 03:24:00,
2013-03-14 22:29:00,37.2,30.2,30.13,South,180,0.0,2.6,76,0.00,,,0.00,WUHU21636XXSP,2013-03-15 03:29:00,
2013-03-14 22:34:00,37.2,30.2,30.13,SSE,157,0.0,0.0,76,0.00,,,0.00,WUHU21636XXSP,2013-03-15 03:34:00,
2013-03-14 22:39:00,37.2,30.2,30.12,SSE,157,0.0,0.0,76,0.00,,,0.00,WUHU21636XXSP,2013-03-15 03:39:00,
2013-03-14 22:44:00,37.0,30.0,30.12,South,180,1.1,1.3,76,0.00,,,0.00,WUHU21636XXSP,2013-03-15 03:44:00,
2013-03-14 22:49:00,37.0,30.0,30.12,South,180,0.0,7.1,76,0.00,,,0.00,WUHU21636XXSP,2013-03-15 03:49:00,
2013-03-14 22:54:00,36.9,29.8,30.12,SSW,202,2.4,10.0,76,0.00,,,0.00,WUHU21636XXSP,2013-03-15 03:54:00,
2013-03-14 22:59:00,36.7,29.7,30.11,SSE,157,2.0,10.0,76,0.00,,,0.00,WUHU21636XXSP,2013-03-15 03:59:00,
2013-03-14 23:00:00,36.7,29.7,30.11,SSE,157,2.0,10.0,76,0.00,,,0.00,WUHU21636XXSP,2013-03-15 04:00:00,
2013-03-14 23:05:00,37.0,30.0,30.11,SSW,202,2.0,8.7,76,0.00,,,0.00,WUHU21636XXSP,2013-03-15 04:05:00,
2013-03-14 23:10:00,37.0,30.0,30.11,SE,135,0.0,2.0,76,0.00,,,0.00,WUHU21636XXSP,2013-03-15 04:10:00,
2013-03-14 23:15:00,36.9,29.8,30.11,SSE,157,0.8,7.1,76,0.00,,,0.00,WUHU21636XXSP,2013-03-15 04:15:00,
2013-03-14 23:20:00,36.7,29.7,30.12,South,180,0.0,7.1,76,0.00,,,0.00,WUHU21636XXSP,2013-03-15 04:20:00,
2013-03-14 23:25:00,36.3,29.7,30.11,SSE,157,0.0,0.8,77,0.00,,,0.00,WUHU21636XXSP,2013-03-15 04:25:00,
2013-03-14 23:30:00,36.1,29.5,30.12,South,180,0.0,1.7,77,0.00,,,0.00,WUHU21636XXSP,2013-03-15 04:30:00,
2013-03-14 23:35:00,36.0,29.3,30.11,SSW,202,0.6,1.7,77,0.00,,,0.00,WUHU21636XXSP,2013-03-15 04:35:00,
2013-03-14 23:40:00,36.1,29.8,30.12,South,180,2.0,4.0,78,0.00,,,0.00,WUHU21636XXSP,2013-03-15 04:40:00,
2013-03-14 23:45:00,36.0,29.3,30.12,South,180,0.0,4.0,77,0.00,,,0.00,WUHU21636XXSP,2013-03-15 04:45:00,
2013-03-14 23:50:00,35.8,29.5,30.11,South,180,0.0,2.0,78,0.00,,,0.00,WUHU21636XXSP,2013-03-15 04:50:00,
2013-03-14 23:55:00,35.4,29.1,30.11,SSE,157,0.0,0.0,78,0.00,,,0.00,WUHU21636XXSP,2013-03-15 04:55:00,